GFSWCAN_sfc_temp_159.txt.gz
Temp
55 56 56 57 57 57 57 58 58 58 57 58 58 58 58 58 58 52 54 55 51 50 54 59 61 55 56 54 51 54 56 58 56 53 52 50 51 53 50 51 50 49 44 41 40 39 42 62 61 55 56 54 57 58
55 55 56 56 57 57 57 57 57 57 57 57 57 57 57 57 57 56 50 59 59 49 54 62 63 66 64 63 54 52 51 52 58 53 50 52 52 49 47 46 50 50 51 47 47 46 54 55 56 59 58 58 58 58
55 55 56 56 56 57 56 56 56 56 56 57 57 57 57 57 57 55 50 53 53 49 52 55 56 64 65 66 68 52 53 57 57 58 53 53 53 50 47 48 50 51 51 50 51 55 56 58 61 62 61 59 59 61
54 55 56 56 56 56 56 56 56 56 56 56 57 57 57 57 56 56 47 50 49 51 46 51 65 60 67 63 65 67 65 61 59 59 58 52 54 54 49 55 53 56 56 50 51 54 59 62 62 63 64 64 64 63
54 55 55 55 55 55 55 56 56 56 56 56 56 56 57 56 55 52 49 50 54 48 45 48 56 61 62 62 64 64 62 59 56 55 53 54 56 55 49 52 52 57 55 52 52 59 59 61 63 64 63 63 63 64
54 55 55 55 55 55 55 55 56 56 56 56 56 56 56 55 54 48 47 53 55 56 48 44 55 57 63 60 61 62 57 56 56 55 55 56 60 56 50 48 58 57 58 60 62 60 61 63 65 65 64 64 65 65
54 54 54 55 55 55 55 55 55 56 56 55 55 55 55 54 48 45 48 52 53 53 49 46 48 59 64 62 59 59 58 60 59 55 55 58 57 55 49 49 61 59 61 63 61 66 60 63 64 65 66 67 65 67
54 54 54 54 54 55 55 55 55 55 56 55 55 54 54 53 51 48 52 54 54 50 50 45 47 51 60 56 57 60 56 54 60 59 55 60 57 51 50 57 56 60 63 65 64 64 66 65 65 63 66 64 64 64
54 54 53 53 54 54 54 54 55 55 55 54 54 54 49 50 45 49 59 56 54 51 46 48 46 45 59 56 55 57 57 55 55 55 54 60 52 49 56 57 59 62 65 65 65 67 64 66 65 63 64 64 64 62
54 54 54 54 54 54 54 54 55 55 54 54 49 48 45 48 57 59 53 50 49 50 48 45 51 45 53 53 54 57 55 53 51 54 56 53 52 57 57 64 66 64 65 65 63 57 59 58 62 61 62 65 65 64
54 55 54 54 55 55 54 54 55 54 53 47 48 48 54 59 53 50 47 45 47 45 46 48 47 48 54 49 49 52 52 52 49 52 54 47 49 57 62 59 59 61 64 66 68 67 66 65 63 62 61 64 65 65
54 54 54 55 55 54 54 54 55 49 50 49 49 50 50 51 46 43 45 47 44 43 49 47 48 51 52 54 52 51 50 53 49 55 52 45 52 57 59 61 62 61 63 65 67 67 67 67 65 64 64 63 66 66
53 53 54 54 54 54 54 54 55 53 51 50 49 48 48 46 39 43 41 44 45 51 52 51 49 54 53 54 51 50 48 49 53 50 47 50 52 56 57 59 62 62 64 65 65 66 66 66 65 63 62 65 66 64
53 53 53 53 54 54 54 55 55 52 48 45 46 37 42 43 42 43 47 47 51 51 52 52 49 50 52 50 49 47 50 50 47 45 48 50 51 53 55 58 61 63 63 64 64 65 65 64 64 64 64 63 65 63
53 53 53 53 53 54 54 55 54 49 48 45 45 37 40 46 48 53 54 51 52 52 50 49 49 50 49 49 49 48 46 45 48 48 49 49 53 54 55 58 59 61 61 62 61 63 64 64 63 63 62 62 66 64
53 52 50 53 54 53 53 52 49 47 48 47 44 43 46 44 45 50 51 49 52 52 52 50 48 48 48 49 48 49 49 47 50 51 52 53 53 53 54 57 59 60 59 59 59 61 62 61 62 61 60 61 64 65
52 49 54 54 54 53 52 48 47 48 45 46 43 47 47 46 47 51 52 53 53 52 48 47 46 47 49 46 46 50 49 50 50 52 52 53 53 53 54 56 57 58 58 59 59 59 59 60 58 58 57 58 64 65
48 52 54 53 52 51 48 49 48 47 44 44 41 45 49 51 51 53 54 55 51 50 50 49 52 46 47 48 46 49 50 51 52 52 51 52 52 52 55 54 56 57 57 58 62 60 59 58 57 58 59 59 61 60
50 51 53 54 52 50 45 46 46 42 44 46 46 46 49 51 52 52 52 53 51 51 50 49 46 45 46 48 49 50 53 51 53 52 52 52 53 55 54 55 55 54 55 56 57 57 60 58 58 57 57 60 64 64
52 53 53 54 54 49 48 46 49 44 43 46 46 47 47 49 51 52 52 51 50 49 46 46 47 48 48 49 50 52 52 52 52 51 53 53 52 53 54 53 53 53 54 54 54 52 55 57 56 57 58 60 60 62
52 53 53 52 50 50 46 46 48 48 47 45 47 46 45 45 46 46 47 49 47 46 46 49 51 51 51 52 52 53 53 52 51 52 52 52 53 51 52 53 53 53 53 53 53 54 54 55 56 56 58 58 61 64
51 55 50 51 45 48 44 46 44 46 44 45 44 43 42 42 44 44 47 46 45 47 48 48 49 51 51 52 54 55 56 54 53 52 50 50 54 52 52 53 54 54 53 54 53 53 54 55 55 56 57 59 57 59
52 52 50 48 46 43 41 46 44 45 42 44 45 46 45 46 50 52 46 45 48 50 51 51 52 53 53 54 55 55 55 54 53 53 53 53 53 53 52 54 54 54 53 52 53 54 54 51 53 55 54 56 56 55
52 46 46 46 42 38 44 43 44 45 46 46 47 46 47 47 50 49 47 49 52 53 50 50 50 50 50 52 51 53 54 53 53 51 51 53 52 52 53 53 53 53 53 54 54 54 54 53 50 54 54 55 56 56
41 38 40 35 41 42 47 47 45 46 46 47 46 46 46 49 46 47 47 50 48 50 52 52 51 54 53 54 55 56 57 53 52 52 52 52 51 51 51 51 51 51 54 53 53 54 54 54 53 54 56 56 56 57
35 40 37 46 43 42 42 45 45 46 47 47 48 49 50 47 47 45 47 50 52 53 52 51 53 53 53 54 52 51 53 54 52 51 54 56 53 52 51 50 49 50 54 53 53 53 53 54 53 53 52 50 47 53
37 37 41 45 48 48 48 49 50 48 46 47 44 47 48 45 45 48 52 52 52 55 56 56 55 54 52 51 52 53 53 53 53 54 54 55 54 54 53 52 49 52 55 58 58 57 56 56 55 54 53 54 54 55
41 41 39 42 43 46 47 48 47 46 48 48 49 47 46 45 46 52 53 55 56 56 55 54 54 57 54 53 53 53 53 53 54 53 54 55 56 56 57 57 56 48 56 59 59 58 57 56 56 56 55 55 55 58
40 43 43 41 45 46 48 48 48 50 49 48 47 46 49 53 54 53 54 55 55 54 52 52 55 53 55 56 55 54 53 53 52 49 49 47 49 52 53 53 53 54 54 55 49 52 58 57 57 57 57 56 56 57
43 46 45 45 47 47 50 51 51 50 50 52 51 50 49 50 53 55 57 58 55 55 54 53 53 53 53 53 53 55 54 54 53 53 50 49 51 52 53 54 54 54 56 59 58 54 48 53 51 55 55 54 54 54
50 49 49 50 48 50 52 51 51 50 51 49 50 48 48 50 53 53 54 53 54 55 55 54 54 53 54 54 54 54 55 56 57 56 55 54 54 54 54 55 55 54 54 55 54 55 54 54 54 55 55 55 55 53
50 50 48 46 47 49 53 51 50 50 51 50 49 50 51 51 51 53 55 54 57 55 53 56 58 56 53 54 54 54 50 57 57 57 57 56 56 57 57 56 55 56 56 57 57 58 61 60 56 55 55 57 58 56
50 50 49 46 46 49 50 51 50 50 50 48 49 50 52 51 54 56 58 58 59 59 58 58 57 57 57 56 56 54 52 54 49 48 50 49 50 52 56 57 57 60 59 59 58 58 59 59 57 56 55 56 56 56

GFSWCAN_sfc_temp_162.txt.gz
Temp
55 55 56 56 57 57 57 57 58 58 58 58 58 58 58 58 57 53 49 51 51 50 50 58 60 54 53 53 47 50 52 53 55 53 52 50 48 51 51 49 48 49 44 41 39 39 42 60 60 54 55 55 57 58
55 55 55 56 56 57 57 57 57 57 57 57 57 57 57 57 57 55 47 54 54 46 49 57 62 65 60 62 52 50 49 50 54 52 50 49 49 48 48 48 48 49 50 47 48 47 54 57 57 58 57 56 58 58
55 55 55 56 56 56 56 56 56 56 56 56 56 57 57 57 57 55 47 50 51 48 48 50 54 62 65 65 67 50 52 56 55 56 51 50 51 49 49 48 48 49 50 50 52 53 55 58 59 60 60 60 61 61
54 55 55 55 56 56 56 56 55 56 56 56 56 57 57 57 56 56 48 47 47 46 44 48 63 60 66 63 63 65 62 58 56 56 52 50 51 52 49 52 51 54 54 49 51 54 57 60 60 62 62 62 62 62
54 54 55 55 55 55 55 55 55 56 56 55 56 56 56 56 55 52 49 48 49 46 44 45 55 59 60 62 62 63 61 58 54 52 51 50 51 56 49 50 50 54 52 52 53 59 59 60 62 63 62 63 63 63
54 54 55 55 55 55 55 55 55 56 56 55 56 56 56 55 54 46 43 51 53 53 47 43 54 54 61 60 59 59 56 52 53 52 53 52 55 54 50 48 57 56 56 59 62 60 61 62 64 65 63 63 64 64
54 54 55 54 54 55 55 54 54 55 56 55 55 55 55 54 50 44 44 51 53 52 48 45 45 56 62 57 55 54 53 53 53 52 53 54 55 52 48 49 60 59 59 59 60 64 62 63 64 64 65 65 64 65
53 54 54 54 54 54 54 55 55 54 55 55 54 54 54 53 52 47 48 52 53 50 50 43 46 49 61 55 52 56 50 52 53 56 53 52 52 50 50 56 56 60 61 61 60 64 65 63 63 62 64 63 63 63
53 54 55 53 53 54 54 54 54 54 54 54 54 54 49 50 45 46 58 56 56 52 45 47 44 43 58 55 54 54 53 51 53 53 53 56 51 50 57 58 59 60 64 64 61 63 63 64 63 62 63 62 61 61
53 54 55 54 54 54 54 54 54 54 54 54 51 48 45 48 56 57 53 49 49 49 48 44 49 45 52 52 53 52 54 50 50 54 56 54 50 57 59 61 60 61 62 62 61 58 59 59 60 61 63 63 64 63
53 54 55 54 54 54 54 54 54 54 53 49 47 47 52 58 53 48 47 45 46 44 47 47 46 46 55 48 49 51 50 50 48 51 53 47 49 56 64 63 62 60 61 65 67 68 66 65 61 61 61 62 62 63
53 54 54 54 55 55 54 54 54 49 49 49 48 50 50 49 46 43 44 47 45 43 47 47 48 49 51 54 50 51 49 51 47 51 49 44 52 59 59 61 65 62 62 65 66 67 66 66 65 62 61 61 62 64
53 53 54 54 54 54 54 54 54 53 51 50 48 47 47 46 39 42 41 43 45 50 51 50 48 51 51 53 50 49 47 45 51 49 47 50 53 55 54 56 59 60 61 62 65 66 66 65 65 63 61 62 63 62
52 53 53 54 54 54 54 54 54 52 49 45 45 36 42 42 43 44 46 48 51 51 50 50 47 48 51 49 49 46 48 49 46 44 49 51 52 52 54 56 59 61 61 62 63 64 65 64 63 63 62 61 63 62
52 53 53 53 54 54 54 54 54 51 48 45 45 38 39 43 47 51 53 50 52 52 51 49 48 49 49 48 49 47 45 43 46 47 50 50 51 51 54 56 57 58 59 60 61 62 62 63 63 63 61 59 63 63
52 52 50 53 54 54 53 53 50 49 48 46 45 42 45 43 44 44 50 49 52 52 50 48 47 47 47 48 47 48 47 45 48 50 52 52 52 53 54 55 56 58 58 58 59 61 61 61 61 61 60 59 61 63
52 48 53 53 54 53 52 49 46 46 45 45 43 44 44 43 47 49 51 52 54 49 47 48 46 46 49 46 46 49 48 50 50 52 53 53 52 52 53 55 56 59 58 59 59 59 59 60 59 59 60 58 60 63
48 51 54 53 51 50 48 49 48 46 43 43 41 44 45 48 48 52 53 54 52 48 49 48 51 47 45 45 47 49 50 52 52 53 52 53 54 54 55 54 56 56 56 57 57 58 59 59 60 59 59 58 58 59
50 51 53 53 51 48 44 45 45 41 43 44 44 44 45 47 49 52 53 51 51 51 48 49 46 45 47 49 51 51 51 52 51 51 52 54 53 53 54 55 55 55 55 55 55 55 56 57 59 59 58 57 59 60
51 52 52 54 54 48 47 47 47 43 42 44 44 44 45 47 48 49 50 49 48 48 46 46 46 48 50 50 51 52 52 52 52 52 53 54 53 53 54 53 53 53 54 55 55 51 55 57 58 58 58 58 59 60
51 52 53 52 49 49 47 46 47 47 46 43 45 44 44 43 44 45 46 46 44 43 43 46 48 50 50 51 52 52 52 52 52 53 53 52 53 52 53 53 53 54 53 53 54 54 54 56 57 56 57 59 61 62
51 54 49 50 46 48 46 45 43 45 42 43 42 42 42 41 44 46 49 44 44 46 46 47 48 51 50 52 54 54 55 54 53 52 50 50 53 52 53 53 54 55 54 54 54 54 55 55 55 57 57 58 57 60
51 51 49 49 45 43 41 44 42 43 41 42 44 45 46 46 49 51 47 47 50 53 50 49 49 51 51 52 53 53 54 54 52 53 53 53 54 52 52 53 54 54 54 54 54 54 55 51 53 55 56 56 56 56
51 47 45 45 44 38 43 41 42 42 44 46 46 45 47 47 49 48 47 48 52 52 49 49 48 48 49 50 50 52 53 53 53 53 52 53 53 52 53 54 54 54 54 55 54 54 55 55 50 55 55 56 57 57
41 39 39 35 41 41 44 45 43 44 45 46 45 45 46 48 45 46 46 49 49 51 52 52 51 52 52 52 54 53 54 53 53 53 52 53 52 52 52 52 52 52 54 54 54 54 54 55 55 55 56 56 56 56
36 40 36 43 42 40 41 43 45 45 46 46 47 48 49 46 46 45 47 49 50 52 53 53 52 52 53 54 53 53 54 53 55 54 53 53 53 53 52 52 51 52 55 55 54 54 54 54 54 54 54 53 47 54
36 37 40 42 45 46 46 48 49 47 45 45 43 46 47 44 45 48 51 52 52 54 55 55 54 52 51 51 52 52 52 52 53 54 55 56 56 56 55 54 53 54 56 58 58 57 56 55 55 55 54 54 55 55
42 40 37 40 41 44 46 47 46 46 47 49 48 46 45 45 46 51 52 55 55 54 54 55 55 53 52 53 52 53 53 53 54 54 57 56 55 56 57 55 54 47 57 57 59 58 57 57 56 55 55 54 55 57
39 41 40 39 42 44 47 47 47 49 50 49 46 46 48 52 54 53 55 56 56 54 53 53 54 53 54 54 54 53 53 54 55 52 51 50 52 53 54 54 55 56 56 56 46 52 59 58 58 57 56 55 55 56
40 43 40 42 43 44 48 51 50 51 51 52 52 51 51 52 54 56 56 54 53 52 52 52 52 54 53 54 54 54 54 53 54 54 51 51 54 55 55 56 56 57 57 58 57 56 48 55 53 58 57 57 57 57
45 45 47 48 47 49 52 51 50 52 52 51 52 50 50 52 53 53 53 53 53 54 55 54 54 53 55 56 56 56 56 56 56 57 56 56 56 57 57 58 57 57 58 58 58 58 58 57 58 58 58 57 57 56
49 48 47 46 47 49 52 51 50 49 49 50 50 48 50 50 52 53 54 55 56 57 53 54 57 56 55 56 56 57 49 57 57 58 58 57 57 59 59 59 58 59 60 60 59 60 62 60 58 58 58 59 59 58
49 49 49 46 45 48 50 50 50 50 49 48 48 50 50 51 53 56 57 56 58 58 58 57 56 56 56 57 57 56 53 57 52 46 46 46 47 51 58 60 60 61 62 61 61 62 62 61 61 60 59 59 58 57

GFSWCAN_sfc_temp_165.txt.gz
Temp
55 55 56 56 56 57 57 57 57 58 58 58 58 57 58 58 57 56 58 58 57 53 57 60 63 59 60 59 55 60 59 61 60 58 60 63 62 62 62 63 63 63 60 60 57 56 54 70 68 63 69 69 68 67
55 55 55 55 56 56 57 57 57 57 57 57 57 57 57 57 57 55 51 59 60 52 56 62 64 67 65 64 60 61 56 56 61 57 61 60 60 61 62 60 62 62 67 66 64 66 67 71 71 72 71 68 67 67
54 54 55 55 56 56 56 56 56 56 56 56 56 57 57 57 57 55 52 56 57 52 55 56 58 67 69 66 70 55 62 62 61 64 59 59 58 63 60 62 63 63 63 67 63 66 67 70 71 71 71 71 70 71
54 54 55 55 55 56 56 56 56 55 56 56 56 57 56 56 56 56 53 56 56 54 45 56 67 62 71 70 66 65 66 65 60 61 59 58 59 63 63 66 69 68 64 64 66 67 68 69 72 73 71 71 71 70
54 54 55 55 55 55 55 55 55 55 56 56 56 56 56 56 55 56 55 55 58 54 47 51 61 63 67 65 64 63 63 62 58 55 57 57 62 62 61 65 67 68 67 69 70 73 74 73 74 73 71 70 71 70
53 54 54 55 55 55 55 55 55 55 55 55 55 56 56 55 54 55 51 55 54 53 46 45 61 60 64 63 60 61 63 62 58 57 58 60 63 62 64 64 69 71 71 74 75 74 76 75 76 76 74 72 73 73
53 54 54 55 54 54 54 55 55 54 54 55 55 54 55 54 53 51 53 53 54 53 47 48 50 61 64 59 60 60 62 61 61 60 60 64 64 65 62 65 72 70 71 70 72 74 72 74 74 75 76 74 70 74
53 54 54 55 54 54 54 54 55 54 54 54 54 54 54 53 53 51 59 54 55 52 51 45 47 54 65 52 55 61 57 59 58 61 62 61 62 62 61 69 69 71 71 70 72 76 77 79 76 74 76 74 72 72
53 54 54 54 53 53 54 54 55 54 54 54 54 54 53 52 48 56 58 57 56 52 46 48 44 41 58 52 61 59 61 54 62 57 60 62 62 58 66 68 68 69 72 75 72 75 75 76 74 73 74 74 74 73
53 53 54 54 54 54 54 54 54 54 53 54 52 50 51 51 57 57 53 49 48 48 48 45 53 45 53 50 52 58 58 58 53 59 59 64 62 65 67 68 72 73 73 74 71 70 72 73 73 73 74 75 76 75
53 53 54 55 55 54 54 54 54 54 53 52 50 49 56 58 54 51 47 45 48 45 49 51 51 47 53 45 50 55 55 58 54 56 60 58 60 66 71 71 71 72 71 74 78 82 80 81 76 76 75 76 75 75
53 53 54 54 55 55 55 54 54 52 51 49 49 52 53 52 48 45 46 48 45 47 51 47 49 51 51 51 51 55 53 56 51 58 59 54 62 65 67 71 72 71 71 73 75 76 77 78 78 78 78 76 76 76
53 53 53 54 54 55 54 54 53 54 53 54 48 47 48 48 39 42 42 44 44 49 51 50 49 54 52 52 50 51 49 51 57 53 54 59 57 63 64 66 67 70 70 73 74 75 75 75 74 74 75 76 76 74
52 53 53 54 54 54 54 54 54 54 52 47 46 37 42 42 44 48 48 51 55 53 51 50 50 52 55 50 50 46 50 51 50 50 53 56 57 59 63 66 66 70 69 71 73 73 74 73 74 73 74 75 74 72
52 53 53 53 54 54 54 54 54 56 48 45 46 39 45 52 50 52 56 54 55 55 51 51 52 51 51 51 52 50 47 45 50 52 57 56 57 59 62 65 67 67 69 70 71 72 73 72 71 72 73 72 72 72
53 53 53 53 54 54 54 53 54 53 49 46 45 44 50 49 52 55 55 54 53 54 54 51 50 49 50 51 50 50 50 49 55 58 57 58 59 59 61 63 65 67 69 69 70 70 71 71 71 71 71 71 71 71
52 50 53 53 53 53 53 52 50 47 48 47 46 51 50 50 49 51 54 54 55 53 51 52 49 45 54 50 49 54 53 56 57 54 56 57 60 60 62 64 65 66 66 67 68 68 69 69 70 70 70 70 71 71
49 52 54 53 53 52 51 50 48 48 45 49 46 53 52 55 56 56 56 57 56 53 52 50 56 50 47 45 49 56 56 59 57 58 58 58 60 61 63 62 63 65 67 67 67 68 69 69 69 71 69 70 70 70
50 51 53 53 54 51 47 49 49 44 49 52 53 53 53 56 58 59 60 60 60 60 57 55 51 51 49 51 51 54 56 57 57 58 58 60 60 60 61 63 64 65 65 65 66 68 67 67 69 70 71 71 71 74
52 52 52 53 53 48 47 48 51 47 47 52 53 52 53 56 57 58 59 58 57 55 52 53 56 59 58 56 56 57 57 55 57 58 59 61 61 60 61 62 63 64 67 66 69 56 69 71 73 70 71 70 71 73
52 53 53 54 51 50 48 48 47 49 51 50 53 53 54 54 54 55 55 55 54 54 54 58 60 62 60 60 61 61 58 59 58 60 60 60 61 60 63 62 62 66 64 66 67 68 65 69 69 69 70 71 72 73
51 54 51 52 49 50 47 53 50 52 49 52 51 52 51 50 51 52 55 51 53 55 56 57 58 60 60 58 61 60 62 62 62 62 52 55 63 63 63 64 62 66 66 65 67 65 68 67 66 68 69 69 65 68
52 52 50 49 46 44 45 53 47 51 47 50 51 48 49 49 50 53 48 53 53 56 58 58 58 58 57 60 60 61 61 62 65 67 65 66 66 64 63 67 66 65 67 67 64 64 66 53 63 65 66 65 60 60
51 49 46 45 45 42 50 48 50 49 51 49 46 45 47 49 51 48 45 48 53 57 55 56 58 58 58 57 60 63 64 65 65 65 65 65 66 64 65 67 67 67 64 63 60 63 64 63 54 64 64 62 60 62
42 42 42 36 45 44 44 47 48 48 43 45 44 45 47 50 46 46 46 50 50 52 54 54 55 56 53 55 59 62 62 64 64 63 62 64 63 62 63 63 63 63 61 57 57 59 62 64 65 64 63 63 61 60
36 45 39 46 46 44 47 44 45 45 46 45 47 49 49 49 46 45 48 50 52 53 54 54 55 55 55 56 56 58 58 61 62 62 57 58 65 64 62 60 60 59 60 60 59 58 60 62 62 62 62 57 48 61
38 42 47 50 48 48 49 51 50 46 45 46 47 48 48 45 45 48 52 53 53 56 57 58 58 58 58 59 61 61 63 63 63 63 62 61 58 58 62 60 57 60 64 65 63 62 60 58 59 60 60 61 61 63
47 46 42 46 47 52 48 49 47 46 47 50 49 46 44 45 46 52 53 56 56 58 60 62 61 64 62 61 61 64 63 64 64 65 64 64 57 60 63 63 61 47 63 65 64 61 59 58 56 56 55 54 55 57
45 49 47 44 47 49 48 46 47 48 53 49 46 46 49 53 54 55 59 61 63 62 63 64 64 66 65 65 64 63 63 67 65 61 59 55 58 60 63 65 66 68 68 67 46 56 63 64 65 62 58 56 55 55
46 50 46 47 47 48 49 50 52 55 52 53 53 53 55 57 60 63 63 63 62 65 66 67 69 70 68 69 67 66 64 64 67 67 64 63 65 67 68 69 69 69 70 69 68 65 48 61 57 66 65 65 63 61
50 48 49 50 49 53 55 55 55 53 58 53 53 52 56 58 62 63 63 66 67 68 69 68 69 70 71 71 70 69 66 67 67 68 70 70 69 69 70 70 71 71 71 71 70 70 68 68 68 67 66 65 64 63
51 49 50 48 50 55 55 53 51 51 54 54 54 57 59 60 62 67 69 70 72 70 58 67 70 68 69 70 71 70 56 69 69 69 69 70 70 70 72 73 73 72 72 72 72 72 70 69 69 69 68 66 66 66
51 49 49 50 50 50 51 51 53 52 53 56 56 57 60 60 62 68 69 68 70 72 70 68 68 67 67 69 69 68 61 67 55 44 45 46 46 55 70 74 73 72 72 73 73 73 70 69 68 67 67 66 65 65

GFSWCAN_sfc_temp_168.txt.gz
Temp
56 56 56 56 56 56 56 57 57 58 58 58 58 58 58 58 57 59 69 70 65 62 68 69 70 65 68 66 61 68 67 69 69 66 67 70 70 74 73 75 71 69 67 69 70 64 60 81 77 70 74 80 78 78
55 55 55 55 56 56 56 57 57 57 57 57 57 57 57 57 57 57 64 69 64 58 65 71 70 73 71 71 67 69 67 64 70 66 70 71 71 77 72 66 73 69 76 73 72 72 77 83 79 82 80 77 77 76
55 55 55 55 55 56 56 56 56 56 56 57 57 57 57 57 57 58 64 68 64 58 64 68 69 75 78 76 78 64 69 71 70 72 67 68 64 75 66 73 74 74 75 75 71 77 78 81 82 81 81 80 79 79
54 55 55 55 55 56 56 56 56 56 56 56 56 57 57 56 56 56 60 69 65 63 57 66 77 72 78 78 76 75 73 72 72 71 67 67 66 74 74 77 75 78 75 75 74 76 78 80 82 82 80 80 79 80
54 54 55 55 55 55 56 56 55 55 55 56 56 56 56 56 56 58 64 64 65 60 58 61 70 75 75 73 72 72 70 64 65 65 64 62 72 69 70 76 76 79 77 75 76 80 81 80 83 83 80 79 79 78
53 54 54 54 55 55 55 55 55 55 55 55 55 56 56 56 55 62 61 63 59 60 50 49 71 68 71 71 69 68 64 60 63 64 63 64 74 70 69 71 81 84 85 86 82 86 86 85 84 85 82 82 81 80
53 54 54 54 55 55 55 55 55 55 55 55 55 55 55 54 56 60 58 55 57 58 47 47 62 63 64 68 70 67 62 61 66 64 63 64 70 68 70 68 79 83 82 81 87 84 79 83 81 85 84 83 78 82
53 53 54 55 55 54 54 55 55 55 55 54 54 54 54 54 53 58 66 56 58 54 54 49 56 57 59 54 56 58 56 65 62 64 70 67 67 67 65 73 77 81 80 80 83 88 87 87 85 84 84 83 80 80
53 53 54 55 54 54 54 54 54 54 54 54 54 54 58 55 59 63 58 57 56 53 47 51 49 46 57 51 51 59 64 59 70 63 65 70 69 60 69 72 77 79 79 80 82 86 87 84 82 82 82 81 81 80
53 53 53 54 54 54 54 54 54 54 54 54 53 52 55 63 58 57 57 50 48 48 47 44 58 51 56 49 50 59 65 64 58 65 71 66 68 74 71 73 75 81 83 86 80 79 83 83 81 82 82 83 83 82
53 53 53 54 55 55 55 54 54 53 53 52 49 51 61 58 55 53 51 47 49 47 51 53 52 48 55 46 46 53 56 64 59 63 63 64 64 71 74 76 78 80 81 84 87 87 88 88 85 84 84 85 85 85
53 53 53 54 55 55 55 55 54 55 52 50 50 56 61 56 53 48 50 53 47 47 55 49 48 50 52 52 47 51 53 59 55 67 64 61 68 74 74 77 78 80 81 81 83 87 88 88 89 87 86 85 86 85
53 53 53 54 54 55 55 55 54 54 55 59 51 49 49 53 42 46 46 44 44 51 51 51 48 51 52 52 50 51 51 53 63 59 59 62 62 70 72 74 76 83 80 80 82 84 86 85 85 85 85 86 86 84
52 53 53 53 54 54 55 54 54 55 56 48 49 39 49 46 51 51 55 55 60 59 53 51 49 50 53 50 49 46 53 54 53 53 57 61 62 67 70 74 76 78 79 79 81 83 82 82 83 83 85 85 84 82
52 53 53 54 55 55 54 54 54 59 52 46 50 43 51 60 63 62 63 64 60 57 53 53 54 55 49 48 50 49 47 45 55 56 62 65 64 67 69 73 75 77 78 79 81 82 82 82 83 82 83 82 82 82
53 53 56 54 54 54 54 55 57 60 53 48 48 49 58 57 56 60 61 59 58 56 56 56 51 48 51 53 51 51 51 47 58 61 66 66 65 66 67 71 73 74 76 77 78 80 81 80 80 81 82 81 82 80
52 54 53 53 54 54 54 54 55 49 50 49 54 61 60 59 58 61 60 60 59 62 53 52 52 50 59 55 54 62 55 57 60 62 66 64 64 63 68 71 73 73 73 74 75 76 76 77 78 78 77 77 81 81
51 53 53 53 55 53 56 53 50 52 48 56 55 62 62 62 62 62 62 63 59 58 57 51 59 53 51 47 52 60 62 62 63 65 60 63 64 66 70 69 70 72 72 73 74 76 76 77 77 79 77 78 80 79
51 52 53 53 55 54 51 53 56 49 55 60 61 62 63 64 67 68 68 68 68 68 65 64 56 56 55 51 53 54 60 60 59 61 67 66 67 67 69 71 72 71 71 71 73 75 76 75 78 78 81 82 82 84
52 52 53 53 53 48 48 52 60 53 54 60 62 60 62 64 68 68 68 69 66 65 61 60 62 68 66 61 58 58 58 58 59 60 61 65 67 70 69 71 73 73 75 74 74 64 77 78 79 78 79 76 77 80
52 55 53 55 54 54 55 55 49 52 54 53 59 60 60 65 62 63 64 69 62 61 60 65 65 69 70 69 64 63 58 59 55 56 56 62 70 73 74 75 74 76 73 74 73 73 69 74 76 77 78 78 80 81
54 54 55 56 52 55 54 61 57 60 57 60 59 61 58 58 58 61 65 59 61 64 65 65 64 65 67 66 67 66 68 66 67 67 54 60 72 74 76 77 75 73 74 73 74 74 74 76 75 76 77 77 71 77
53 55 55 53 50 48 48 62 52 57 53 56 60 53 54 54 55 56 55 56 61 63 65 64 63 64 64 66 67 67 68 67 71 72 74 76 76 75 76 76 76 71 71 75 75 75 74 59 71 74 76 76 73 69
52 51 47 47 50 47 59 54 59 56 57 50 47 45 48 49 53 49 49 56 56 55 56 58 62 64 67 64 67 69 69 71 72 73 74 73 74 74 74 76 78 78 75 75 74 74 75 74 61 75 75 73 72 68
43 44 46 38 49 47 48 51 53 50 43 45 43 45 48 49 48 46 46 49 51 53 54 56 61 64 58 63 69 71 69 72 71 70 74 74 75 75 74 75 72 72 70 68 62 65 67 71 73 73 73 73 71 65
37 49 42 51 51 49 53 47 46 44 45 45 46 50 49 48 47 45 47 51 52 53 55 56 56 56 60 60 58 63 67 73 72 70 68 71 66 69 69 66 64 63 70 70 68 63 63 65 67 65 63 61 49 60
39 47 56 59 56 55 53 55 51 46 45 47 49 50 51 46 44 48 53 55 57 62 65 68 63 63 63 63 65 71 71 72 68 69 71 71 65 63 64 63 60 66 72 69 67 65 63 61 60 60 60 61 62 62
51 52 47 54 55 59 52 51 47 46 47 52 50 46 45 46 46 53 54 61 65 70 72 73 73 73 70 70 72 72 71 72 71 69 71 68 69 74 73 73 71 50 70 71 69 69 66 61 59 60 57 56 56 60
51 57 55 50 53 55 49 46 46 49 51 49 47 48 56 60 62 62 65 70 73 74 76 74 74 77 76 74 73 71 76 71 65 63 61 67 68 69 75 76 76 76 75 72 45 55 65 68 69 68 66 64 60 56
52 58 53 52 51 49 50 55 52 54 54 54 59 60 61 64 71 75 75 75 75 76 76 77 78 78 76 75 73 72 75 78 73 71 70 69 71 76 77 77 77 77 78 76 74 69 49 66 61 72 70 70 69 68
59 56 53 56 55 59 61 62 62 58 55 61 64 61 64 70 74 76 77 78 79 78 78 77 77 79 77 76 75 73 71 76 76 77 78 78 78 77 77 78 79 80 79 79 78 76 76 74 74 72 72 71 69 67
57 54 54 51 53 63 64 58 60 58 62 60 62 67 70 72 67 73 78 82 79 76 62 75 76 76 79 79 78 77 61 77 77 77 76 78 78 78 81 82 82 81 80 80 80 78 76 75 75 75 74 72 72 72
57 56 56 53 57 54 53 59 59 59 60 62 65 69 71 70 65 74 79 80 79 78 78 78 78 78 77 78 78 75 68 77 62 47 49 47 46 56 73 84 82 81 80 80 79 78 75 74 73 72 72 72 71 71

GFSWCAN_sfc_temp_171.txt.gz
Temp
56 56 56 56 56 56 56 57 57 58 58 59 59 59 59 59 58 62 69 76 68 61 71 72 75 70 71 72 66 69 72 75 74 69 70 72 72 75 70 73 75 71 70 70 72 68 64 86 83 74 79 84 84 83
55 55 55 55 56 56 56 56 57 57 57 57 58 58 58 58 57 57 61 73 75 63 68 76 77 78 77 77 71 72 70 70 75 71 74 75 72 77 72 66 82 72 78 74 76 68 81 88 85 88 86 82 83 81
55 55 55 55 55 56 56 56 57 57 57 57 57 57 58 57 57 56 59 66 66 64 70 74 74 81 84 81 82 67 73 75 73 78 70 71 66 78 68 59 64 82 84 79 78 82 84 86 87 87 87 85 85 85
55 55 55 55 55 55 56 56 56 56 56 56 57 57 57 57 56 56 59 67 69 66 61 72 84 78 85 86 82 81 77 78 78 76 71 70 69 79 71 73 73 79 82 79 79 81 84 85 86 86 85 86 85 84
54 54 54 55 55 55 56 56 56 56 56 56 56 56 57 56 55 57 64 69 72 63 61 66 76 81 83 81 78 78 78 75 70 69 69 67 75 75 76 76 74 71 72 78 76 82 82 83 88 88 84 84 84 82
54 54 54 54 55 55 55 55 56 56 56 56 55 55 56 56 55 60 58 72 74 69 58 59 76 74 75 74 74 73 74 73 70 68 66 72 77 71 70 68 78 74 86 89 82 88 89 88 89 89 86 86 85 84
54 54 54 54 55 55 55 55 55 55 55 55 55 55 55 54 59 55 54 57 60 70 58 51 65 69 70 66 72 70 70 70 67 65 65 67 71 71 70 67 79 82 87 88 90 89 84 87 85 89 88 88 81 86
53 53 54 54 55 55 54 55 55 55 55 55 54 54 54 54 54 56 68 55 62 60 58 48 60 66 69 52 51 69 62 59 55 58 64 62 70 71 67 77 69 80 85 85 88 91 89 90 89 88 89 87 84 84
53 53 53 54 55 55 54 54 55 55 55 55 54 54 55 57 56 59 58 57 59 52 49 54 54 51 67 52 51 53 56 48 55 58 58 58 62 61 71 74 78 82 80 83 88 91 90 88 86 86 86 85 84 84
53 53 53 54 55 55 55 55 55 54 54 54 56 54 50 59 58 59 56 52 47 48 47 45 63 55 55 53 48 49 55 50 52 62 67 57 62 70 69 78 79 81 85 87 84 84 86 85 85 86 86 86 86 86
53 53 53 54 55 55 55 55 55 54 53 54 50 50 58 58 61 55 52 50 50 46 55 59 53 47 55 45 46 51 52 55 55 63 64 62 55 55 73 74 79 84 86 86 89 90 90 89 87 87 87 87 87 87
53 53 53 54 55 55 56 55 55 55 57 50 49 53 56 54 53 52 53 56 54 48 53 50 49 50 51 53 48 49 50 57 54 70 66 61 69 74 77 79 80 82 85 87 90 90 90 89 90 89 88 88 88 88
53 53 53 54 54 55 55 55 54 54 55 58 50 53 53 54 41 48 48 50 51 57 57 51 49 51 51 51 48 47 47 54 65 60 62 63 64 76 77 79 79 82 86 86 85 88 89 89 91 90 88 90 90 88
52 53 53 54 54 55 55 55 54 55 54 50 48 39 47 49 54 57 59 56 61 60 55 52 50 49 51 48 50 47 52 54 50 52 59 65 67 71 75 77 78 81 84 86 84 86 87 87 87 89 90 90 89 87
52 53 53 54 55 55 55 55 54 59 54 47 52 43 53 63 61 66 69 62 63 68 62 56 51 52 51 48 50 49 51 48 52 54 59 66 68 72 75 79 80 80 84 85 84 86 85 86 86 86 88 88 88 87
53 53 59 55 55 55 54 56 57 58 55 54 55 54 58 58 60 65 61 62 71 70 61 62 52 49 49 55 52 49 47 47 52 58 62 68 67 70 73 75 77 80 81 83 85 84 84 85 84 86 87 87 87 86
52 61 54 54 54 54 54 58 58 53 54 52 54 65 63 61 61 58 66 69 73 67 53 52 50 52 61 55 53 59 51 52 54 57 61 66 67 69 72 74 75 76 77 78 79 80 82 84 85 84 82 83 86 85
59 55 53 53 56 55 55 52 52 54 50 59 56 60 64 65 60 64 69 68 66 68 63 56 64 54 53 53 53 58 62 59 61 60 60 66 67 70 73 72 73 75 75 77 78 79 81 80 80 82 80 82 83 84
54 54 53 53 55 54 52 56 59 50 57 60 62 67 68 69 71 72 70 67 68 67 66 63 58 56 54 61 62 62 61 61 57 62 64 62 67 68 72 74 74 74 74 75 77 79 79 79 82 83 87 87 86 87
53 53 53 54 53 49 51 54 64 57 55 60 68 67 68 68 70 71 71 69 64 64 60 59 62 64 60 64 65 60 59 59 61 57 57 61 63 67 71 74 76 77 78 77 77 66 80 81 82 81 83 81 81 84
51 54 54 56 55 54 55 55 55 59 59 58 64 64 62 68 66 68 68 71 68 66 63 68 70 74 73 72 73 73 66 62 55 58 56 57 60 65 75 79 80 80 80 79 77 75 73 78 78 78 79 81 83 84
57 54 58 59 55 57 58 63 59 62 61 63 64 67 63 61 57 59 66 63 65 68 68 64 65 70 70 69 71 71 71 68 67 63 53 55 59 68 73 76 79 78 79 79 79 77 76 78 77 77 78 79 74 81
53 57 59 60 55 52 50 66 56 58 53 56 61 56 56 56 61 65 57 60 63 64 68 65 66 67 66 68 69 71 71 70 71 71 65 71 73 77 78 79 80 79 78 79 79 79 77 64 74 76 77 76 77 78
51 54 51 52 54 49 59 55 59 59 55 49 48 48 49 50 53 51 49 59 57 63 64 63 64 61 63 67 71 73 72 74 74 76 77 75 75 76 79 80 80 80 77 79 78 77 77 76 66 78 78 77 77 77
46 46 49 39 57 53 53 53 54 49 44 45 44 45 47 50 46 45 46 50 51 52 54 59 61 62 62 68 68 73 74 76 74 73 77 79 78 79 80 79 75 75 76 74 73 72 71 73 75 71 70 70 67 70
39 52 43 52 54 52 53 46 45 44 45 45 47 50 50 48 46 45 48 51 53 55 56 57 60 58 60 62 62 63 68 79 77 73 73 77 76 75 72 67 66 70 75 71 68 65 64 66 65 64 64 63 53 65
41 48 56 65 61 59 53 53 49 46 46 48 53 52 51 45 44 49 57 64 62 66 68 70 71 67 68 67 66 68 69 71 68 66 72 76 77 76 73 68 66 69 74 74 71 67 65 62 61 60 59 60 59 60
52 55 50 56 57 59 52 51 46 46 47 52 53 46 46 47 48 59 65 69 72 78 79 79 78 78 76 75 71 75 73 76 78 78 78 77 77 78 76 76 75 56 71 70 74 75 72 69 67 65 61 57 55 60
54 62 62 55 57 52 47 46 47 49 52 50 51 50 55 64 71 71 73 78 81 75 77 78 80 82 80 75 75 74 77 75 72 67 67 69 72 74 80 79 78 79 77 75 46 57 70 72 73 72 70 67 66 65
57 65 58 56 49 51 57 56 51 54 57 58 62 65 64 70 76 80 77 66 67 77 80 80 82 82 79 79 77 72 71 77 73 72 69 70 73 78 79 78 77 77 77 77 76 72 51 66 57 69 69 69 70 71
65 62 58 58 57 64 63 60 60 61 63 67 70 69 68 67 75 77 79 81 80 81 83 80 81 82 80 80 78 76 70 77 81 80 81 81 80 79 79 80 81 80 79 76 75 72 66 66 68 67 70 71 71 67
61 58 55 53 58 66 67 56 59 62 65 63 67 71 62 70 69 76 80 83 83 80 68 77 79 79 82 82 81 80 64 81 80 81 80 81 79 80 83 83 82 82 82 78 76 80 77 76 71 73 72 73 73 72
61 62 60 60 60 59 63 63 61 61 64 65 66 67 75 72 67 76 86 85 83 82 81 81 81 82 80 81 81 80 73 79 61 46 48 45 42 53 74 76 80 81 80 77 64 62 76 76 74 75 75 74 74 74

GFSWCAN_sfc_temp_174.txt.gz
Temp
56 56 56 56 56 56 56 57 57 57 58 58 59 59 59 59 59 61 69 72 65 59 67 72 73 68 69 69 62 67 70 75 73 66 67 67 68 72 72 75 71 67 67 70 71 66 63 85 84 74 78 84 85 84
56 56 56 56 56 56 56 56 57 57 57 58 58 58 58 58 58 57 63 71 71 61 66 74 76 78 76 76 72 72 69 68 69 67 66 71 69 74 68 63 76 65 70 63 69 74 80 88 85 88 88 85 84 83
56 55 55 55 55 56 56 56 57 57 57 57 58 58 58 58 58 57 64 63 66 62 67 72 73 81 86 84 85 68 72 76 74 77 68 68 62 74 66 67 60 70 71 57 59 80 82 86 87 88 88 86 86 86
55 55 55 55 55 55 56 56 57 57 57 57 57 57 58 58 57 56 62 63 64 60 58 69 83 77 86 87 84 82 78 79 77 75 69 67 65 76 70 70 66 68 66 57 57 78 83 86 86 87 86 87 87 86
55 55 55 55 55 55 55 56 56 57 56 56 56 57 57 57 56 59 64 64 70 59 56 62 73 79 85 84 80 82 79 75 73 68 63 64 71 71 73 72 55 68 57 57 57 70 81 82 87 88 85 85 85 84
54 54 54 54 55 55 55 56 55 56 56 56 56 56 56 55 56 63 58 65 62 70 60 58 75 74 79 77 75 74 73 75 72 69 68 69 74 71 64 65 76 77 62 61 71 70 75 87 88 90 86 86 86 84
54 54 54 54 55 55 55 55 55 55 56 56 56 55 55 54 55 58 53 56 55 68 57 55 63 73 75 73 73 68 69 69 67 64 65 67 67 70 66 61 72 78 75 69 71 68 71 86 84 89 88 88 82 86
54 54 54 54 55 56 55 55 55 55 56 56 55 55 54 54 54 59 67 59 60 61 60 51 59 61 71 63 61 58 60 66 64 63 66 65 67 67 59 69 74 79 72 65 63 66 74 88 88 87 88 86 84 83
53 54 54 54 55 56 55 55 55 55 55 55 55 55 56 54 61 64 59 59 64 54 48 54 55 54 67 63 60 53 54 49 62 58 60 63 62 56 62 68 74 73 75 73 71 81 87 85 84 86 86 85 83 83
54 54 54 54 55 55 55 55 55 55 55 55 55 56 52 56 58 60 58 53 49 49 50 49 63 54 58 58 50 48 51 48 46 57 62 52 57 66 69 69 63 71 73 78 65 71 83 77 84 85 85 85 85 84
54 53 54 54 55 55 55 55 56 55 54 57 51 54 56 58 59 54 52 50 47 45 53 58 54 48 54 46 47 50 47 51 46 58 54 53 53 62 70 67 68 65 73 77 87 87 84 84 86 85 85 86 87 86
53 53 53 54 55 56 56 56 56 57 53 50 49 51 53 55 50 49 52 56 54 53 59 57 50 50 51 52 47 49 47 51 50 57 58 57 60 68 72 75 76 78 82 86 87 87 89 87 88 86 87 86 87 87
53 53 54 54 55 55 56 56 55 55 55 57 49 50 50 51 40 48 50 52 52 59 55 51 48 50 50 50 48 47 45 49 60 50 54 61 56 62 68 73 75 81 85 85 84 87 87 88 82 72 82 87 88 86
53 53 53 54 54 55 55 56 55 55 56 49 48 39 47 48 53 56 55 52 56 57 57 55 50 48 50 47 48 44 49 50 51 53 55 57 55 56 63 71 80 80 84 84 82 85 78 80 71 65 67 83 88 85
53 53 53 54 54 55 55 55 54 57 52 48 49 43 54 62 59 66 64 63 65 61 62 55 51 51 48 47 49 49 48 46 51 55 58 60 62 61 68 76 78 80 80 83 85 85 86 86 83 76 80 88 88 85
53 53 58 57 57 55 55 56 56 60 55 53 55 55 60 59 58 58 62 61 58 63 67 60 53 49 49 50 48 48 48 49 50 53 54 59 65 65 64 76 78 81 81 83 85 85 85 85 85 86 87 87 87 86
53 55 55 56 55 55 55 55 55 52 53 54 57 65 62 61 59 63 62 55 71 62 57 57 51 48 57 50 50 54 48 50 53 53 56 58 61 66 69 75 76 77 78 79 79 81 83 85 86 84 82 83 86 86
53 57 55 54 56 57 59 60 54 53 51 59 56 62 63 63 61 67 71 63 69 62 59 55 61 56 53 51 53 57 58 59 57 54 58 64 64 65 71 72 74 76 76 77 79 80 81 82 81 82 82 83 83 84
55 57 54 54 56 53 51 53 57 50 57 61 64 66 65 64 70 72 71 71 70 72 67 62 58 51 57 61 62 61 62 61 55 58 61 64 64 63 65 73 74 74 74 75 78 79 77 78 77 62 80 80 83 85
53 53 55 55 54 50 50 54 63 58 57 58 65 61 62 65 70 71 73 72 67 67 60 59 59 66 65 62 67 64 66 65 61 58 60 64 61 60 60 69 73 75 76 75 77 68 80 80 79 81 80 77 76 79
52 57 55 57 57 57 56 54 56 62 62 59 64 62 65 69 68 68 66 72 66 63 62 66 68 64 66 71 73 72 68 68 63 60 56 58 57 57 61 63 75 72 75 78 78 75 73 78 78 79 79 80 82 82
56 55 57 60 55 58 57 63 60 62 58 62 60 62 61 58 60 64 68 63 65 60 64 66 69 70 70 67 68 69 71 69 67 61 54 56 56 56 58 64 73 61 65 72 78 78 79 80 77 78 78 78 74 79
54 58 58 58 53 52 50 66 57 58 54 56 61 58 58 57 57 66 58 60 60 63 64 67 68 69 68 69 69 69 71 71 70 68 63 64 60 58 59 66 75 73 70 72 77 79 78 65 75 77 78 77 76 76
51 56 53 53 54 49 61 56 60 57 57 53 49 51 55 55 60 56 52 58 61 67 66 65 68 67 66 66 65 63 67 73 72 70 62 65 66 66 70 78 74 72 77 77 78 76 76 76 66 76 75 73 71 70
47 47 49 39 57 54 52 53 53 50 45 46 44 45 47 50 46 45 46 49 51 56 58 60 60 60 59 61 65 65 73 75 74 73 76 78 78 78 67 70 75 76 77 73 71 72 71 71 70 71 70 67 66 67
38 53 43 53 54 53 54 49 48 45 45 45 46 51 50 48 46 45 48 50 53 56 56 57 57 56 59 61 60 63 68 73 76 72 74 77 76 72 69 69 67 69 74 73 68 64 63 64 64 64 62 60 54 66
42 50 57 63 62 58 51 49 49 47 46 47 50 51 50 45 45 52 63 65 61 67 67 70 63 60 59 59 62 62 66 73 69 67 68 70 69 71 72 67 65 69 68 72 70 67 66 63 62 59 58 59 58 58
55 56 51 56 57 60 52 50 47 46 48 53 54 49 48 48 55 67 66 59 69 69 69 79 79 76 72 69 73 71 64 65 67 64 64 73 77 77 76 76 74 57 70 71 75 74 71 69 66 64 62 59 59 62
56 60 61 56 57 57 49 47 48 51 53 51 49 53 57 67 73 74 66 59 73 76 79 78 77 79 78 76 71 71 75 71 71 66 65 68 70 71 76 76 76 78 77 75 50 59 69 71 71 71 69 67 67 66
59 67 58 57 53 52 54 52 51 58 58 62 63 67 70 72 67 66 79 77 77 79 81 82 83 78 75 76 76 72 73 77 78 74 71 71 71 77 79 78 74 72 76 77 72 72 54 66 66 74 70 71 71 68
68 66 60 59 56 55 54 57 63 64 66 65 60 53 61 66 76 80 77 78 82 77 76 81 81 82 76 75 75 75 75 81 79 75 80 81 81 79 80 80 81 79 77 78 76 74 75 71 71 71 65 64 63 61
64 60 60 55 53 56 63 63 62 61 65 59 51 56 63 66 67 77 83 82 81 80 68 77 80 79 82 82 82 81 65 80 78 79 78 78 79 78 81 81 83 82 76 72 74 65 62 75 67 69 65 72 69 67
62 64 63 60 60 55 60 62 62 61 58 58 66 64 66 72 68 78 85 86 83 82 81 82 83 82 81 82 81 78 72 78 59 45 46 45 44 56 73 80 81 77 69 71 72 66 72 73 75 75 75 73 73 71